Location: Bratislava
(48.1500°N, 17.1170°E)
Time: 00:18:15
(UTC+01:00)

N. Korean satellite - Pass Details

Date: 27 January 2019
Orbit: 457 x 510 km, 97.2° (Epoch: 18 February)

Event Time Altitude Azimuth Distance (km) Brightness Sun altitude
Rises 18:18:52 0° 209° (SSW) 2,596 10.8 -16.0°
Reaches altitude 10° 18:21:40 10° 233° (SW) 1,724 10.3 -16.4°
Maximum altitude 18:23:54 15° 270° (W) 1,431 10.1 -16.8°
Drops below altitude 10° 18:26:10 10° 307° (NW) 1,739 10.0 -17.2°
Sets 18:29:01 0° 331° (NNW) 2,632 10.6 -17.7°
